Location: *
(44.1392°N, 4.8079°E)
Time: 20:11:44
(UTC+00:00)

CZ-4B DEB - Visible Passes

Search period start: 16 January 2022 00:00
Search period end: 26 January 2022 00:00
Orbit: 788 x 865 km, 99.0° (Epoch: 15 January)

Date Brightness Start Highest point End Pass type
(mag) Time Alt. Az. Time Alt. Az. Time Alt. Az.
16 Jan ? 05:36:21 10° NE 05:40:50 29° E 05:45:17 10° SSE visible
16 Jan ? 17:00:26 10° SSE 17:05:47 60° ENE 17:11:03 10° N visible
16 Jan ? 18:42:30 10° SW 18:46:20 19° W 18:50:09 10° NW visible
17 Jan ? 05:18:11 10° NE 05:21:54 20° E 05:25:36 10° SE visible
17 Jan ? 18:22:48 10° SSW 18:27:25 28° W 18:31:59 10° NW visible
18 Jan ? 05:00:33 10° ENE 05:02:55 13° E 05:05:16 10° ESE visible
18 Jan ? 18:03:28 10° SSW 18:08:33 40° W 18:13:35 10° NNW visible
19 Jan ? 06:19:47 10° NNE 06:24:59 70° ESE 06:30:09 10° S visible
19 Jan ? 17:44:23 10° S 17:49:44 59° WSW 17:55:00 10° NNW visible
20 Jan ? 06:01:10 10° NNE 06:06:10 47° E 06:11:10 10° S visible
20 Jan ? 17:25:33 10° SSE 17:30:58 85° WSW 17:36:19 10° NNW visible
20 Jan ? 19:10:20 10° WSW 19:11:52 11° W 19:13:25 10° WNW visible
21 Jan ? 05:42:40 10° NNE 05:47:19 32° E 05:51:56 10° SSE visible
21 Jan ? 17:06:54 10° SSE 17:12:15 67° ENE 17:17:30 10° N visible
21 Jan ? 18:49:27 10° SW 18:52:53 17° W 18:56:17 10° NW visible
22 Jan ? 05:24:24 10° NE 05:28:24 22° E 05:32:24 10° SE visible
22 Jan ? 18:29:36 10° SSW 18:33:57 25° W 18:38:16 10° NW visible
23 Jan ? 05:06:33 10° NE 05:09:26 15° E 05:12:20 10° SE visible
23 Jan ? 18:10:09 10° SSW 18:15:03 36° W 18:19:55 10° NNW visible
24 Jan ? 06:26:13 10° NNE 06:31:26 79° ESE 06:36:39 10° SSW visible
24 Jan ? 17:51:00 10° S 17:56:14 52° W 18:01:23 10° NNW visible
25 Jan ? 06:07:33 10° NNE 06:12:38 53° E 06:17:44 10° S visible
25 Jan ? 17:32:05 10° S 17:37:26 76° WSW 17:42:43 10° NNW visible
